Location: Newark
(58.8333°N, 23.5833°E)
Time: 00:54:54
(UTC+00:00)

SR - All Passes

Search period start: 16 November 2019 00:00
Search period end: 26 November 2019 00:00
Orbit: 574 x 882 km, 66.7° (Epoch: 14 November)

Date Brightness Start Highest point End Pass type
(mag) Time Alt. Az. Time Alt. Az. Time Alt. Az.
16 Nov - 00:04:27 10° WNW 00:07:41 15° WSW 00:10:54 10° SW night (unlit)
16 Nov - 13:01:04 10° SSE 13:04:42 18° ESE 13:08:31 10° ENE daylight
16 Nov - 14:40:25 10° SSW 14:45:50 64° SE 14:51:38 10° NE visible
16 Nov - 16:22:40 10° WSW 16:28:13 54° NNW 16:34:02 10° NE visible
16 Nov - 18:05:58 10° WNW 18:11:22 39° N 18:16:57 10° ENE visible
16 Nov - 19:48:51 10° NW 19:54:36 50° NNE 20:00:23 10° E visible
16 Nov - 21:31:11 10° NW 21:37:09 76° SW 21:43:02 10° SE visible
16 Nov - 23:13:56 10° WNW 23:18:33 24° WSW 23:23:07 10° SSW night (unlit)
17 Nov - 12:14:21 10° ESE 12:15:41 11° E 12:17:03 10° E daylight
17 Nov - 13:51:12 10° SSW 13:56:20 43° ESE 14:01:48 10° NE daylight
17 Nov - 15:32:44 10° WSW 15:38:19 70° NW 15:44:15 10° NE visible
17 Nov - 17:15:52 10° W 17:21:17 41° N 17:26:54 10° ENE visible
17 Nov - 18:58:59 10° WNW 19:04:35 43° NNE 19:10:15 10° E visible
17 Nov - 20:41:27 10° NW 20:47:26 80° NE 20:53:22 10° SE visible
17 Nov - 22:23:53 10° NW 22:29:16 36° WSW 22:34:34 10° S night (unlit)
18 Nov - 13:02:26 10° S 13:07:00 28° ESE 13:11:50 10° ENE daylight
18 Nov - 14:42:59 10° SW 14:48:32 87° SE 14:54:29 10° NE visible
18 Nov - 16:25:45 10° W 16:31:14 46° NNW 16:36:59 10° NE visible
18 Nov - 18:09:02 10° WNW 18:14:31 40° N 18:20:06 10° ENE visible
18 Nov - 19:51:42 10° NW 19:57:35 62° NNE 20:03:28 10° ESE visible
18 Nov - 21:34:02 10° NW 21:39:49 54° SW 21:45:31 10° SSE visible
18 Nov - 23:17:25 10° WNW 23:20:50 16° WSW 23:24:12 10° SW night (unlit)
19 Nov - 12:14:17 10° SSE 12:17:50 18° ESE 12:21:32 10° ENE daylight
19 Nov - 13:53:29 10° SSW 13:58:55 62° SE 14:04:43 10° NE daylight
19 Nov - 15:35:42 10° WSW 15:41:15 56° NNW 15:47:07 10° NE visible
19 Nov - 17:18:59 10° WNW 17:24:25 39° N 17:30:00 10° ENE visible
19 Nov - 19:01:55 10° NW 19:07:39 50° NNE 19:13:26 10° E visible
19 Nov - 20:44:16 10° NW 20:50:13 78° SW 20:56:07 10° SE visible
19 Nov - 22:26:58 10° WNW 22:31:41 25° WSW 22:36:18 10° SSW night (unlit)
20 Nov - 11:27:57 10° ESE 11:28:49 10° E 11:29:43 10° E daylight
20 Nov - 13:04:19 10° S 13:09:27 41° ESE 13:14:53 10° NE daylight
20 Nov - 14:45:46 10° WSW 14:51:23 72° NW 14:57:20 10° NE visible
20 Nov - 16:28:53 10° W 16:34:20 41° N 16:39:58 10° ENE visible
20 Nov - 18:12:02 10° WNW 18:17:38 43° NNE 18:23:18 10° E visible
20 Nov - 19:54:31 10° NW 20:00:30 78° NE 20:06:26 10° SE visible
20 Nov - 21:36:57 10° NW 21:42:22 38° WSW 21:47:42 10° S visible
21 Nov - 12:15:35 10° S 12:20:07 27° ESE 12:24:54 10° ENE daylight
21 Nov - 13:56:02 10° SW 14:01:37 85° SE 14:07:34 10° NE daylight
21 Nov - 15:38:46 10° W 15:44:17 47° NNW 15:50:02 10° NE visible
21 Nov - 17:22:03 10° WNW 17:27:33 40° N 17:33:09 10° ENE visible
21 Nov - 19:04:46 10° NW 19:10:39 60° NNE 19:16:31 10° ESE visible
21 Nov - 20:47:06 10° NW 20:52:54 56° SW 20:58:37 10° SSE visible
21 Nov - 22:30:25 10° WNW 22:33:57 16° WSW 22:37:27 10° SW night (unlit)
22 Nov - 11:27:30 10° SE 11:30:57 17° ESE 11:34:33 10° ENE daylight
22 Nov - 13:06:34 10° SSW 13:12:00 60° SE 13:17:48 10° NE daylight
22 Nov - 14:48:43 10° WSW 14:54:19 57° NNW 15:00:11 10° NE visible
22 Nov - 16:32:00 10° WNW 16:37:27 39° N 16:43:02 10° ENE visible
22 Nov - 18:14:57 10° NW 18:20:42 49° NNE 18:26:28 10° E visible
22 Nov - 19:57:20 10° NW 20:03:19 80° SW 20:09:11 10° SE visible
22 Nov - 21:40:01 10° WNW 21:44:48 26° WSW 21:49:30 10° SSW visible
23 Nov - 12:17:25 10° S 12:22:32 40° ESE 12:27:57 10° NE daylight
23 Nov - 13:58:48 10° WSW 14:04:27 74° NW 14:10:24 10° NE daylight
23 Nov - 15:41:53 10° W 15:47:22 42° NNW 15:53:01 10° ENE visible
23 Nov - 17:25:04 10° WNW 17:30:40 42° NNE 17:36:20 10° E visible
23 Nov - 19:07:35 10° NW 19:13:35 76° NE 19:19:29 10° ESE visible
23 Nov - 20:50:00 10° NW 20:55:29 39° WSW 21:00:50 10° S visible
24 Nov - 11:28:44 10° SSE 11:33:14 26° ESE 11:37:57 10° ENE daylight
24 Nov - 13:09:05 10° SW 13:14:42 83° SE 13:20:39 10° NE daylight
24 Nov - 14:51:47 10° W 14:57:20 48° NNW 15:03:06 10° NE visible
24 Nov - 16:35:06 10° WNW 16:40:36 39° N 16:46:11 10° ENE visible
24 Nov - 18:17:49 10° NW 18:23:42 59° NNE 18:29:33 10° ESE visible
24 Nov - 20:00:10 10° NW 20:06:00 58° SW 20:11:43 10° SSE visible
24 Nov - 21:43:23 10° WNW 21:47:05 17° WSW 21:50:43 10° SW visible
25 Nov - 10:40:43 10° SE 10:44:04 16° ESE 10:47:33 10° ENE daylight
25 Nov - 12:19:39 10° SSW 12:25:05 58° SE 12:30:53 10° NE daylight
25 Nov - 14:01:45 10° WSW 14:07:22 58° NNW 14:13:16 10° NE daylight
25 Nov - 15:45:01 10° WNW 15:50:30 39° N 15:56:05 10° ENE visible
25 Nov - 17:28:01 10° NW 17:33:46 48° NNE 17:39:29 10° E visible
25 Nov - 19:10:24 10° NW 19:16:23 82° SW 19:22:16 10° SE visible
25 Nov - 20:53:03 10° WNW 20:57:54 27° WSW 21:02:40 10° SSW visible
